Location: G�yn�k
(36.6721°N, 30.5542°E)
Time: 04:34:29
(UTC+00:00)

ARIANE 5 R/B - Pass Details

Date: 07 June 2020
Orbit: 748 x 796 km, 98.6° (Epoch: 05 July)

Event Time Altitude Azimuth Distance (km) Brightness Sun altitude
Rises 01:14:39 0° 5° (N) 3,210 6.5 -14.4°
Reaches altitude 10° 01:17:02 10° 359° (N) 2,278 5.6 -14.1°
Maximum altitude 01:21:45 44° 289° (WNW) 1,035 3.0 -13.4°
Enters shadow 01:25:03 18° 225° (SW) 1,752 3.7 -12.9°
